�������C�����ː����j�^�v���󋵏��
Date,Time,Cs137(Bq/L),Cs134(Bq/L),�S��(Bq/L)
2018/12/17,00:00,0.38,ND,9.6
2018/12/17,00:10,0.33,ND,11
2018/12/17,00:20,0.34,ND,ND
2018/12/17,00:30,0.34,ND,9.6
2018/12/17,00:40,0.34,ND,ND
2018/12/17,00:50,0.36,ND,ND
2018/12/17,01:00,0.36,ND,9.5
2018/12/17,01:10,0.40,ND,ND
2018/12/17,01:20,0.41,ND,8.8
2018/12/17,01:30,0.41,ND,9.2
2018/12/17,01:40,0.41,ND,11
2018/12/17,01:50,0.36,ND,10
2018/12/17,02:00,0.38,ND,9.2
2018/12/17,02:10,0.45,ND,14
2018/12/17,02:20,0.43,ND,13
2018/12/17,02:30,0.44,ND,12
2018/12/17,02:40,0.45,ND,13
2018/12/17,02:50,0.44,ND,16
2018/12/17,03:00,0.46,ND,18
2018/12/17,03:10,0.44,ND,14
2018/12/17,03:20,0.46,ND,12
2018/12/17,03:30,0.46,ND,11
2018/12/17,03:40,0.46,ND,11
2018/12/17,03:50,0.48,ND,ND
2018/12/17,04:00,0.46,ND,ND
2018/12/17,04:10,0.48,ND,ND
2018/12/17,04:20,0.46,ND,ND
2018/12/17,04:30,0.48,ND,ND
2018/12/17,04:40,0.46,ND,ND
2018/12/17,04:50,0.45,ND,11
2018/12/17,05:00,0.40,ND,10
2018/12/17,05:10,0.39,ND,13
2018/12/17,05:20,0.38,ND,12
2018/12/17,05:30,0.39,ND,13
2018/12/17,05:40,0.38,ND,13
2018/12/17,05:50,0.39,ND,10
2018/12/17,06:00,0.43,ND,12
2018/12/17,06:10,0.42,ND,9.3
2018/12/17,06:20,0.41,ND,10
2018/12/17,06:30,0.41,ND,ND
2018/12/17,06:40,0.42,ND,ND
2018/12/17,06:50,0.37,ND,10
2018/12/17,07:00,0.41,ND,10
2018/12/17,07:10,0.36,ND,12
2018/12/17,07:20,0.36,ND,14
2018/12/17,07:30,0.34,ND,16
2018/12/17,07:40,0.35,ND,15
2018/12/17,07:50,0.34,ND,14
2018/12/17,08:00,0.34,ND,13
2018/12/17,08:10,0.34,ND,11
2018/12/17,08:20,0.34,ND,ND
2018/12/17,08:30,0.37,ND,ND
2018/12/17,08:40,0.35,ND,ND
2018/12/17,08:50,0.36,ND,ND
2018/12/17,09:00,0.35,ND,ND
2018/12/17,09:10,0.41,ND,8.9
2018/12/17,09:20,0.35,ND,12
2018/12/17,09:30,0.37,ND,12
2018/12/17,09:40,0.38,ND,11
2018/12/17,09:50,0.35,ND,10
2018/12/17,10:00,0.40,ND,12
2018/12/17,10:10,0.34,ND,9.5
2018/12/17,10:20,0.36,ND,ND
2018/12/17,10:30,0.37,ND,ND
2018/12/17,10:40,0.40,ND,ND
2018/12/17,10:50,0.37,ND,ND
2018/12/17,11:00,0.41,ND,ND
2018/12/17,11:10,0.41,ND,11
2018/12/17,11:20,0.39,ND,13
2018/12/17,11:30,0.38,ND,17
2018/12/17,11:40,0.38,ND,15
2018/12/17,11:50,0.37,ND,12
2018/12/17,12:00,0.33,ND,9.7
2018/12/17,12:10,0.33,ND,9.9
2018/12/17,12:20,0.34,ND,12
2018/12/17,12:30,0.31,ND,12
2018/12/17,12:40,0.30,ND,14
2018/12/17,12:50,0.30,ND,17
2018/12/17,13:00,0.29,ND,17
2018/12/17,13:10,0.29,ND,16
2018/12/17,13:20,0.29,ND,15
2018/12/17,13:30,0.30,ND,14
2018/12/17,13:40,0.31,ND,10
2018/12/17,13:50,0.31,ND,9.5
2018/12/17,14:00,0.31,ND,9.5
2018/12/17,14:10,0.30,ND,8.8
2018/12/17,14:20,0.31,ND,8.8
2018/12/17,14:30,0.32,ND,9.6
2018/12/17,14:40,0.33,ND,14
2018/12/17,14:50,0.33,ND,14
2018/12/17,15:00,0.37,ND,18
2018/12/17,15:10,0.37,ND,21
2018/12/17,15:20,0.37,ND,22
2018/12/17,15:30,0.42,ND,19
2018/12/17,15:40,0.44,ND,17
2018/12/17,15:50,0.40,ND,17
2018/12/17,16:00,0.38,ND,15
2018/12/17,16:10,0.40,ND,12
2018/12/17,16:20,0.41,ND,9.5
2018/12/17,16:30,0.41,ND,11
2018/12/17,16:40,0.39,ND,12
2018/12/17,16:50,0.38,ND,9.7
2018/12/17,17:00,0.39,ND,ND
2018/12/17,17:10,0.38,ND,11
2018/12/17,17:20,0.43,ND,11
2018/12/17,17:30,0.44,ND,9.9
2018/12/17,17:40,0.45,ND,11
2018/12/17,17:50,0.47,ND,12
2018/12/17,18:00,0.48,ND,13
2018/12/17,18:10,0.47,ND,15
2018/12/17,18:20,0.48,ND,14
2018/12/17,18:30,0.48,ND,14
2018/12/17,18:40,0.48,ND,12
2018/12/17,18:50,0.47,ND,12
2018/12/17,19:00,0.41,ND,10
2018/12/17,19:10,0.47,ND,ND
2018/12/17,19:20,0.40,ND,ND
2018/12/17,19:30,0.37,ND,ND
2018/12/17,19:40,0.36,ND,ND
2018/12/17,19:50,0.39,ND,ND
2018/12/17,20:00,0.34,ND,ND
2018/12/17,20:10,0.33,ND,ND
2018/12/17,20:20,0.34,ND,ND
2018/12/17,20:30,0.35,ND,ND
2018/12/17,20:40,0.37,ND,ND
2018/12/17,20:50,0.38,ND,12
2018/12/17,21:00,0.38,ND,13
2018/12/17,21:10,0.39,ND,11
2018/12/17,21:20,0.39,ND,9.0
2018/12/17,21:30,0.39,ND,ND
2018/12/17,21:40,0.37,ND,ND
2018/12/17,21:50,0.37,ND,ND
2018/12/17,22:00,0.37,ND,ND
2018/12/17,22:10,0.37,ND,ND
2018/12/17,22:20,0.35,ND,ND
2018/12/17,22:30,0.34,ND,10
2018/12/17,22:40,0.35,ND,11
2018/12/17,22:50,0.33,ND,12
2018/12/17,23:00,0.33,ND,14
2018/12/17,23:10,0.33,ND,17
2018/12/17,23:20,0.33,ND,15
2018/12/17,23:30,0.31,ND,14
2018/12/17,23:40,0.30,ND,14
2018/12/17,23:50,0.33,ND,13
